Weather History for Topeka Forbes, KS

Change the Weather History Date:

Tuesday, September 17, 2013

  Actual Average Record
Temperature  
Mean Temperature 68 °F -  
Max Temperature 77 °F 79 °F 103 °F (1953)
Min Temperature 60 °F 56 °F 39 °F (1981)
Cooling Degree Days 4    
Growing Degree Days 18 (Base 50)    
Moisture  
Dew Point 62 °F    
Average Humidity 90    
Maximum Humidity 100    
Minimum Humidity 69    
Precipitation  
Precipitation 0.62 in - - ()
Sea Level Pressure  
Sea Level Pressure 30.09 in    
Wind  
Wind Speed 7 mph (SE)    
Max Wind Speed 17 mph    
Max Gust Speed 22 mph    
Visibility 5 miles    
Events Rain , Thunderstorm    
Averages and records for this station are not official NWS values.
T = Trace of Precipitation, MM = Missing Value Source: NWS Daily Summary

Daily Weather History Graph

Daily Weather History Graph

Search for Another Location

Airport:

Trip Planner

Search our weather history database for the weather conditions in past years. The results will help you decide how hot, cold, wet, or windy it might be!

Date:

Astronomy

Sep. 17, 2013 Rise Set
Actual Time 7:06 AM CDT 7:27 PM CDT
Civil Twilight 6:39 AM CDT 7:53 PM CDT
Nautical Twilight 6:07 AM CDT 8:25 PM CDT
Astronomical Twilight 5:35 AM CDT 8:57 PM CDT
Moon 6:14 PM CDT (9/17) 5:02 AM CDT (9/17)
Length of Visible Light 13h 14m
Length of Day
12h 21m
Waxing Gibbous, 96% of the Moon is Illuminated
Sep 17
Waxing Gibbous
Sep 19
Full
Sep 26
Last Quarter
Oct 4
New
Oct 11
First Quarter

Hourly Weather History & Observations

Time (CDT) Temp. Dew Point Humidity Pressure Visibility Wind Dir Wind Speed Gust Speed Precip Events Conditions
12:53 AM 61.0 °F 59.0 °F 93% 30.18 in 5.0 mi SE 5.8 mph - N/A   Overcast
1:53 AM 61.0 °F 59.0 °F 93% 30.17 in 4.0 mi SE 5.8 mph - N/A   Overcast
2:50 AM 60.8 °F 59.0 °F 94% 30.16 in 2.5 mi SE 6.9 mph - 0.02 in Rain Light Rain
2:53 AM 61.0 °F 59.0 °F 93% 30.15 in 3.0 mi SE 6.9 mph - 0.02 in Rain Light Rain
3:53 AM 61.0 °F 60.1 °F 97% 30.13 in 3.0 mi ESE 6.9 mph - 0.00 in   Overcast
4:06 AM 60.8 °F 60.8 °F 100% 30.14 in 2.5 mi SE 5.8 mph - 0.00 in Rain Light Rain
4:24 AM 60.8 °F 60.8 °F 100% 30.12 in 1.8 mi East 9.2 mph - 0.01 in Rain Light Rain
4:31 AM 60.8 °F 60.8 °F 100% 30.13 in 2.5 mi SE 8.1 mph - 0.01 in Rain Light Rain
4:39 AM 62.6 °F 60.8 °F 94% 30.12 in 3.0 mi SE 6.9 mph - 0.01 in Rain Light Rain
4:53 AM 62.1 °F 60.1 °F 93% 30.12 in 4.0 mi SE 5.8 mph - 0.01 in Rain Light Rain
5:05 AM 62.6 °F 60.8 °F 94% 30.11 in 4.0 mi ESE 8.1 mph - 0.00 in Rain Light Rain
5:13 AM 62.6 °F 60.8 °F 94% 30.12 in 4.0 mi ESE 8.1 mph - 0.00 in Rain Light Rain
5:53 AM 62.1 °F 60.1 °F 93% 30.10 in 4.0 mi SE 6.9 mph - 0.01 in Rain Light Rain
6:03 AM 62.6 °F 60.8 °F 94% 30.11 in 2.5 mi SE 6.9 mph - 0.03 in Rain Light Rain
6:13 AM 62.6 °F 60.8 °F 94% 30.12 in 3.0 mi SE 5.8 mph - 0.03 in   Overcast
6:53 AM 62.1 °F 61.0 °F 96% 30.13 in 2.5 mi SSE 5.8 mph - 0.07 in Rain Rain
7:04 AM 62.6 °F 60.8 °F 94% 30.14 in 4.0 mi SSE 5.8 mph - 0.02 in Rain Light Rain
7:29 AM 62.6 °F 60.8 °F 94% 30.14 in 3.0 mi SE 3.5 mph - 0.09 in Rain Rain
7:42 AM 62.6 °F 60.8 °F 94% 30.15 in 2.0 mi Calm Calm - 0.17 in Rain Heavy Rain
7:53 AM 62.1 °F 60.1 °F 93% 30.14 in 3.0 mi SE 4.6 mph - 0.20 in Rain Rain
8:01 AM 62.6 °F 60.8 °F 94% 30.14 in 3.0 mi ESE 5.8 mph - 0.03 in Rain Rain
8:20 AM 62.6 °F 60.8 °F 94% 30.15 in 2.5 mi SE 4.6 mph - 0.09 in Rain Rain
8:27 AM 62.6 °F 60.8 °F 94% 30.15 in 3.0 mi SSE 3.5 mph - 0.10 in Rain Light Rain
8:35 AM 62.6 °F 60.8 °F 94% 30.14 in 4.0 mi ESE 6.9 mph - 0.11 in Rain Light Rain
8:53 AM 63.0 °F 61.0 °F 93% 30.14 in 3.0 mi SSE 5.8 mph - 0.14 in Rain , Thunderstorm Rain
9:00 AM 62.6 °F 60.8 °F 94% 30.14 in 4.0 mi SE 8.1 mph - 0.00 in Rain Light Rain
9:20 AM 62.6 °F 60.8 °F 94% 30.14 in 2.5 mi ESE 6.9 mph - 0.05 in Rain , Thunderstorm Rain
9:30 AM 62.6 °F 60.8 °F 94% 30.14 in 1.5 mi SE 6.9 mph - 0.10 in Rain , Thunderstorm Rain
9:36 AM 62.6 °F 60.8 °F 94% 30.14 in 3.0 mi SE 5.8 mph - 0.11 in Rain Light Rain
9:48 AM 62.6 °F 62.6 °F 100% 30.14 in 2.5 mi ESE 6.9 mph - 0.14 in Rain , Thunderstorm Light Rain
9:49 AM 63.0 °F 62.1 °F 97% 30.13 in 2.0 mi ESE 6.9 mph - 0.16 in Rain , Thunderstorm Heavy Rain
9:59 AM 62.6 °F 62.6 °F 100% 30.13 in 3.0 mi SE 8.1 mph - 0.00 in Rain Light Rain
10:15 AM 64.4 °F 62.6 °F 94% 30.13 in 6.0 mi ESE 6.9 mph - 0.01 in Rain Light Rain
10:28 AM 64.4 °F 62.6 °F 94% 30.13 in 9.0 mi SE 11.5 mph - 0.01 in   Overcast
10:53 AM 66.0 °F 64.0 °F 93% 30.11 in 10.0 mi SE 10.4 mph - 0.01 in Rain Light Rain
11:53 AM 71.1 °F 64.9 °F 81% 30.09 in 10.0 mi SSE 11.5 mph 19.6 mph 0.00 in   Partly Cloudy
12:50 PM 71.6 °F 64.4 °F 78% 30.09 in 10.0 mi South 12.7 mph - N/A   Mostly Cloudy
12:53 PM 72.0 °F 64.9 °F 78% 30.07 in 10.0 mi SSE 17.3 mph 21.9 mph N/A   Mostly Cloudy
1:53 PM 73.9 °F 66.0 °F 76% 30.04 in 10.0 mi South 16.1 mph 20.7 mph N/A   Mostly Cloudy
2:53 PM 73.0 °F 64.9 °F 76% 30.03 in 10.0 mi South 15.0 mph - N/A   Overcast
3:43 PM 73.4 °F 66.2 °F 78% 30.02 in 10.0 mi SSE 15.0 mph - N/A   Overcast
3:53 PM 73.9 °F 66.0 °F 76% 29.99 in 10.0 mi SSE 11.5 mph - N/A   Overcast
4:53 PM 77.0 °F 66.0 °F 69% 29.96 in 10.0 mi South 15.0 mph - N/A   Scattered Clouds
5:53 PM 77.0 °F 66.0 °F 69% 29.94 in 10.0 mi SSE 15.0 mph - N/A   Clear
6:53 PM 73.9 °F 66.0 °F 76% 29.93 in 10.0 mi SE 11.5 mph - N/A   Clear
7:53 PM 71.1 °F 66.9 °F 87% 29.94 in 9.0 mi SE 10.4 mph - N/A   Clear
8:53 PM 69.1 °F 66.0 °F 90% 29.96 in 8.0 mi SE 10.4 mph - N/A   Clear
9:02 PM 69.8 °F 66.2 °F 88% 29.98 in 7.0 mi SE 11.5 mph - N/A   Partly Cloudy
9:53 PM 69.1 °F 66.0 °F 90% 29.97 in 6.0 mi SSE 10.4 mph - N/A   Clear
10:53 PM 66.9 °F 64.9 °F 93% 29.96 in 6.0 mi SSE 6.9 mph - N/A   Clear
11:53 PM 66.9 °F 64.0 °F 90% 29.96 in 6.0 mi SSE 6.9 mph - N/A   Clear